Terminal Aerodrome Forecast
Issued by NWS

Home | Current Version | Previous Version | Text Only | Print | Product List | Glossary On
Versions: 1 2 3 4 5 6 7 8 9 10 11 12 13 14 15
030
FTAK31 PAJN 221736
TAFAPG
TAF
PAPG 221736Z 2218/2318 13005KT P6SM -SHRA SCT015 OVC030
     FM222000 09005KT P6SM -SHRA SCT025 OVC035
     FM230300 VRB03KT P6SM VCSH SCT025 OVC040
     FM230900 VRB03KT P6SM FEW005 BKN040
      AMD LTD TO CLD VIS AND WIND 2306/2315=

USA.gov is the U.S. government's official web portal to all federal, state and local government web resources and services.